Location: Unspecified
(41.5000°N, 0.0000°E)
Time: 04:37:45
(UTC+00:00)

Vanguard 2 - Pass Details

Date: 25 June 2019
Orbit: 553 x 2938 km, 32.9° (Epoch: 21 July)

Event Time Altitude Azimuth Distance (km) Brightness Sun altitude
Rises 12:59:33 0° 266° (W) 4,239 11.5 68.3°
Reaches altitude 10° 13:02:45 10° 252° (WSW) 3,602 11.4 68.0°
Maximum altitude 13:10:00 24° 204° (SSW) 3,317 11.6 67.1°
Drops below altitude 10° 13:19:59 10° 158° (SSE) 5,092 12.0 65.7°
Sets 13:25:46 0° 147° (SSE) 6,432 12.3 64.9°
